Regional Weather Roundup
Issued by NWS

Home | Current Version | Previous Version | Graphics & Text | Print | Product List | Glossary On
Versions: 1 2 3 4 5 6 7 8 9 10 11 12 13 14 15 16 17 18 19 20 21 22 23 24 25 26 27 28 29 30 31 32 33 34 35 36 37 38 39 40 41 42 43 44 45 46 47 48 49 50
000
ASUS45 KBOU 230007
RWRCO

WEATHER ROUNDUP FOR COLORADO
NATIONAL WEATHER SERVICE DENVER/BOULDER CO
600 PM MDT FRI MAY 22 2015

NOTE: "FAIR" INDICATES FEW OR NO CLOUDS BELOW 12000 FEET WITH NO
SIGNIFICANT WEATHER AND/OR OBSTRUCTIONS TO VISIBILITY.

COZ001>005-013-030-031-230100-
...NORTHWEST COLORADO...

CITY           SKY/WX    TMP DP  RH WIND       PRES   REMARKS
CRAIG          PTSUNNY   54  42  64 E3        29.98F
HAYDEN         PTSUNNY   48  37  66 N10       30.00R
MEEKER         LGT RAIN  49  43  80 MISG      29.97R
MOUNT WERNER   NOT AVBL
STEAMBOAT SPGS PTSUNNY   49  39  68 CALM      30.00F
WALDEN         CLOUDY    52  32  46 SW21G32   30.02R
$$

COZ006>008-011-230100-
...WEST CENTRAL VALLEYS...

CITY           SKY/WX    TMP DP  RH WIND       PRES   REMARKS
GRAND JUNCTION PTSUNNY   66  36  32 NW6       29.84F
MONTROSE       CLOUDY    65  32  29 S15G24    29.92R
EAGLE          MOSUNNY   59  37  44 W9        29.99R
RIFLE          PTSUNNY   62  37  39 CALM      29.90F
DELTA          CLOUDY    65  44  45 MISG      29.88S
NUCLA          CLOUDY    59  36  41 S29G36    29.97R
$$

COZ017>023-064>068-230100-
...SOUTHWEST COLORADO...

CITY           SKY/WX    TMP DP  RH WIND       PRES   REMARKS
DURANGO        CLOUDY    60  37  42 E7        29.96F
CORTEZ         MOSUNNY   53  45  74 NE8       29.95F
PAGOSA SPRINGS CLOUDY    54  36  51 N5        30.03F
TELLURIDE      LGT RAIN  38  37  95 CALM      30.10R
WOLF CREEK PAS NOT AVBL
$$

COZ009-010-012-014-032>034-037-058>063-230100-
...CENTRAL COLORADO...

CITY           SKY/WX    TMP DP  RH WIND       PRES   REMARKS
ASPEN          PTSUNNY   54  37  52 N7G14     29.98F
BUENA VISTA    PTSUNNY   52  32  46 SW12G17   30.02S
COPPER MTN     PTSUNNY   36  30  80 S9        30.18S THUNDER
BERTHOUD PASS  HAZE      27  19  74 W10       30.21S THUNDER VSB 1/4
COTTONWOOD PAS CLOUDY    45  30  57 W14G25    30.11R
GUNNISON       PTSUNNY   55  27  33 W14       30.01R
KREMMLING      CLOUDY    54  32  43 W23G30    30.02R THUNDER
LEADVILLE      PTSUNNY   47  26  44 VRB3      30.06F
MONARCH PASS   CLOUDY    32  28  86 S20G31    30.29R VSB 1/2 WCI  20
SALIDA         CLOUDY    56  35  45 SW7       30.07R
SUNLIGHT       TSTM      37  34  87 S3        30.16R VSB 1
WILKERSON PASS CLOUDY    37  32  81 SW6       30.18F THUNDER
$$

COZ069>075-230100-
...SAN LUIS VALLEY/SANGRE DE CRISTO MOUNTAINS...

CITY           SKY/WX    TMP DP  RH WIND       PRES   REMARKS
ALAMOSA        PTSUNNY   61  31  32 S17       30.01S
LA VETA PASS   PTSUNNY  N/A N/A N/A MISG      30.14F
SAGUACHE       PTSUNNY   55  30  38 SW7       30.02S
$$

COZ035-036-038>040-230100-
...NORTHERN COLORADO FRONT RANGE...

CITY           SKY/WX    TMP DP  RH WIND       PRES   REMARKS
DENVER INTL AP PTSUNNY   56  45  66 NE14      29.99R
DMNS CITY PARK   N/A     56  46  69 NE8G18    30.00R
AURORA         LGT RAIN  56  47  71 NE13      30.00F
FRONT RANGE AP PTSUNNY   59  48  67 NE13      30.00R THUNDER
ERIE MUNI ARPT RAIN      54  46  75 NE9       29.98F
BOULDER MUN AP CLOUDY    50  48  93 N5        30.00F
CENTENNIAL     PTSUNNY   53  48  83 NE9       29.99R
BROOMFIELD     LGT RAIN  52  48  87 N15       29.99F
FORT COLLINS   CLOUDY    54  45  71 NE5       30.03R
LONGMONT       PTSUNNY   59  47  64 CALM      30.02F
$$

COZ041-046-047-076>085-087-088-230100-
...PIKES PEAK/PALMER DIVIDE AND SOUTHERN FOOTHILLS...

CITY           SKY/WX    TMP DP  RH WIND       PRES   REMARKS
COLO. SPRINGS  MOSUNNY   64  39  39 S18       29.96S
A. F. ACADEMY  PTSUNNY   62  41  45 SE18      29.95F
ELLICOTT       NOT AVBL
FALCON         PTSUNNY   56  44  63 NE14      30.01S
FORT CARSON    MOSUNNY   65  42  43 SE15      29.92F
LIMON          CLOUDY    57  47  69 E10       29.95F
MONUMENT HILL  NOT AVBL
TRINIDAD       SUNNY     68  42  38 S17G24    29.93F
$$

COZ042>045-048>051-090-091-230100-
...NORTHEAST COLORADO...

CITY           SKY/WX    TMP DP  RH WIND       PRES   REMARKS
GREELEY ARPT   CLOUDY    55  43  62 CALM      30.02R
AKRON          PTSUNNY   56  51  84 E12       29.99R
BURLINGTON     CLOUDY    56  53  90 SE28G35   29.93F
WRAY           CLOUDY   N/A N/A N/A E14       30.00S
STERLING       CLOUDY    52  48  87 E14G21    30.00R
HOLYOKE        NOT AVBL
FORT MORGAN    CLOUDY    54  46  75 E8        30.02R
$$

COZ086-089-092>099-230100-
...SOUTHEAST COLORADO...

CITY           SKY/WX    TMP DP  RH WIND       PRES   REMARKS
PUEBLO         PTSUNNY   70  43  37 VRB5      29.86R
LA JUNTA       PTSUNNY   73  51  46 E13       29.84F
LAMAR          PTSUNNY   72  53  51 S22G29    29.86F
SPRINGFIELD      N/A     67  50  54 S21G33    29.95F
$$


USA.gov is the U.S. government's official web portal to all federal, state and local government web resources and services.